Location: ????????
(48.4751°N, 37.6926°E)
Time: 12:52:01
(UTC+00:00)

SeaSat 1 - Pass Details

Date: 20 January 2021
Orbit: 744 x 747 km, 108.0° (Epoch: 27 February)

Event Time Altitude Azimuth Distance (km) Brightness Sun altitude
Rises 14:54:35 0° 22° (NNE) 3,201 5.3 -7.6°
Reaches altitude 10° 14:57:04 10° 12° (NNE) 2,274 4.6 -8.0°
Maximum altitude 15:01:19 30° 313° (NW) 1,331 4.1 -8.6°
Drops below altitude 10° 15:05:33 10° 254° (WSW) 2,265 6.6 -9.3°
Sets 15:08:02 0° 243° (WSW) 3,186 7.9 -9.7°
